Location: Julian California
(33.0790°N, 116.6010°W)
Time: 02:47:33
(UTC-07:00)

USA 229 DEB - Pass Details

Date: 12 July 2018
Orbit: 1024 x 1189 km, 63.4° (Epoch: 24 September)

Event Time Altitude Azimuth Distance (km) Brightness Sun altitude
Rises 22:32:56 0° 330° (NNW) 3,974 8.0 -25.8°
Reaches altitude 10° 22:35:36 10° 332° (NNW) 3,034 7.1 -26.2°
Maximum altitude 22:42:55 81° 60° (ENE) 1,184 3.8 -27.0°
Enters shadow 22:44:28 59° 134° (SE) 1,330 3.8 -27.2°
